Location: Bergheim
(50.9593°N, 6.6400°E)
Time: 11:12:48
(UTC+02:00)

ISS - Pass Details

Date: 25 May 2021
Orbit: 417 x 422 km, 51.6° (Epoch: 13 June)

Event Time Altitude Azimuth Distance (km) Brightness Sun altitude
Rises 23:47:33 0° 285° (WNW) 2,369 0.7 -14.4°
Reaches altitude 10° 23:49:44 10° 277° (W) 1,503 -0.5 -14.6°
Maximum altitude 23:52:53 37° 208° (SSW) 667 -3.1 -14.8°
Enters shadow 23:53:41 32° 175° (S) 748 -3.0 -14.8°
